ACX855 LPPT-EDFH

Flight info

Callsign ACX855
Flight time 1h 0m
Altitude 36000
Route IXIDA DCT TOSDI N745 ZMR N976 DGO L176 SSN P181 URUNA DCT PERIG DCT ENUPA DCT RLP G21 MAKOT DCT OLIVI OLIVI2J
Aircraft B744/H-SDE3FGHIM1M2RWXY/LB1

Departure

Time 2026-04-29 16:31
Airport Lisbon Humberto Delgado Airport (LPPT)

Arrival

Time 2026-04-29 17:31
Airport Frankfurt-Hahn Airport (EDFH)
Time Latitude Longitude Altitude Speed Heading
2026-04-29 15:58 38.77011 -9.13615 363 ft 0 kts 259°
2026-04-29 16:18 38.77011 -9.13613 356 ft 2 kts 259°
2026-04-29 16:19 38.77016 -9.13579 361 ft 5 kts 258°
2026-04-29 16:19 38.77023 -9.13541 364 ft 5 kts 258°
2026-04-29 16:19 38.77029 -9.13501 363 ft 5 kts 265°
2026-04-29 16:19 38.77025 -9.13462 364 ft 5 kts 295°
2026-04-29 16:20 38.77005 -9.13431 365 ft 4 kts 326°
2026-04-29 16:20 38.76977 -9.13416 365 ft 4 kts 350°
2026-04-29 16:20 38.76969 -9.13415 363 ft 0 kts 350°
2026-04-29 16:22 38.76971 -9.13415 361 ft 3 kts 350°
2026-04-29 16:22 38.77010 -9.13424 361 ft 7 kts 349°
2026-04-29 16:23 38.77072 -9.13439 361 ft 10 kts 348°
2026-04-29 16:23 38.77148 -9.13462 356 ft 12 kts 346°
2026-04-29 16:23 38.77234 -9.13488 362 ft 14 kts 348°
2026-04-29 16:23 38.77331 -9.13514 360 ft 15 kts 348°
2026-04-29 16:24 38.77426 -9.13538 363 ft 13 kts 348°
2026-04-29 16:24 38.77489 -9.13555 362 ft 8 kts 348°
2026-04-29 16:24 38.77558 -9.13572 362 ft 11 kts 348°
2026-04-29 16:24 38.77641 -9.13592 364 ft 13 kts
2026-04-29 16:25 38.77744 -9.13578 366 ft 16 kts 21°
2026-04-29 16:25 38.77865 -9.13507 369 ft 20 kts 24°
2026-04-29 16:25 38.77982 -9.13445 370 ft 18 kts 15°
2026-04-29 16:25 38.78113 -9.13437 371 ft 20 kts 345°
2026-04-29 16:26 38.78251 -9.13478 374 ft 21 kts 349°
2026-04-29 16:26 38.78397 -9.13518 376 ft 22 kts 348°
2026-04-29 16:26 38.78536 -9.13557 379 ft 16 kts 347°
2026-04-29 16:26 38.78652 -9.13562 380 ft 18 kts 18°
2026-04-29 16:27 38.78787 -9.13492 379 ft 24 kts 23°
2026-04-29 16:27 38.78958 -9.13399 368 ft 29 kts 22°
2026-04-29 16:27 38.79163 -9.13291 361 ft 33 kts 22°
2026-04-29 16:27 38.79373 -9.13183 364 ft 32 kts 21°
2026-04-29 16:28 38.79562 -9.13078 369 ft 20 kts 24°
2026-04-29 16:28 38.79664 -9.13022 371 ft 15 kts 23°
2026-04-29 16:28 38.79709 -9.12996 372 ft 7 kts 23°
2026-04-29 16:28 38.79754 -9.12938 374 ft 12 kts 77°
2026-04-29 16:29 38.79740 -9.12825 370 ft 11 kts 111°
2026-04-29 16:29 38.79708 -9.12764 367 ft 9 kts 163°
2026-04-29 16:29 38.79679 -9.12767 364 ft 0 kts 202°
2026-04-29 16:30 38.79671 -9.12770 364 ft 8 kts 202°
2026-04-29 16:30 38.79429 -9.12898 366 ft 68 kts 203°
2026-04-29 16:31 38.78822 -9.13229 366 ft 116 kts 203°
2026-04-29 16:31 38.77958 -9.13689 376 ft 143 kts 203°
2026-04-29 16:31 38.76953 -9.14187 655 ft 150 kts 204°
2026-04-29 16:31 38.75905 -9.14751 1228 ft 155 kts 206°
2026-04-29 16:32 38.74814 -9.15377 1448 ft 180 kts 206°
2026-04-29 16:32 38.73623 -9.16040 1736 ft 189 kts 205°
2026-04-29 16:32 38.72351 -9.16720 2215 ft 198 kts 205°
2026-04-29 16:32 38.71049 -9.17412 2925 ft 186 kts 204°
2026-04-29 16:33 38.68388 -9.18818 4294 ft 213 kts 204°
2026-04-29 16:33 38.66933 -9.19613 4826 ft 235 kts 208°
2026-04-29 16:33 38.65629 -9.20974 5444 ft 240 kts 233°
2026-04-29 16:34 38.64944 -9.23048 6282 ft 243 kts 261°
2026-04-29 16:34 38.65107 -9.25372 7280 ft 250 kts 283°
2026-04-29 16:34 38.65809 -9.27674 8130 ft 286 kts 291°
2026-04-29 16:34 38.66657 -9.30000 9027 ft 294 kts 292°
2026-04-29 16:35 38.67536 -9.32370 9934 ft 294 kts 292°
2026-04-29 16:35 38.68470 -9.34838 10480 ft 318 kts 296°
2026-04-29 16:35 38.69909 -9.37090 11001 ft 340 kts 317°
2026-04-29 16:35 38.72078 -9.38547 11712 ft 354 kts 340°
2026-04-29 16:36 38.74647 -9.38969 12279 ft 379 kts
2026-04-29 16:36 38.77318 -9.38227 12933 ft 396 kts 20°
2026-04-29 16:36 38.79730 -9.36377 13681 ft 399 kts 39°
2026-04-29 16:36 38.81614 -9.33595 14268 ft 432 kts 57°
2026-04-29 16:37 38.82941 -9.30238 14953 ft 419 kts 69°
2026-04-29 16:37 38.83938 -9.26647 15743 ft 428 kts 72°
2026-04-29 16:37 38.84877 -9.23004 16427 ft 428 kts 72°
2026-04-29 16:37 38.85541 -9.20593 16881 ft 429 kts 70°
2026-04-29 16:38 38.87317 -9.15904 17732 ft 437 kts 57°
2026-04-29 16:38 38.89200 -9.12780 18376 ft 439 kts 48°
2026-04-29 16:38 38.91310 -9.09858 19021 ft 455 kts 46°
2026-04-29 16:38 38.93481 -9.06967 19652 ft 448 kts 45°
2026-04-29 16:39 38.95676 -9.04042 20256 ft 460 kts 46°
2026-04-29 16:39 38.97858 -9.01064 20813 ft 460 kts 47°
2026-04-29 16:39 39.00028 -8.98023 21369 ft 464 kts 47°
2026-04-29 16:39 39.02170 -8.94962 21873 ft 475 kts 48°
2026-04-29 16:40 39.04341 -8.91823 22391 ft 488 kts 48°
2026-04-29 16:40 39.06527 -8.88648 22892 ft 472 kts 49°
2026-04-29 16:40 39.08727 -8.85446 23375 ft 486 kts 49°
2026-04-29 16:40 39.10946 -8.82216 23824 ft 475 kts 49°
2026-04-29 16:41 39.13179 -8.78965 24277 ft 501 kts 49°
2026-04-29 16:41 39.15435 -8.75680 24729 ft 490 kts 49°
2026-04-29 16:41 39.17701 -8.72376 25168 ft 486 kts 49°
2026-04-29 16:41 39.19979 -8.69048 25612 ft 487 kts 49°
2026-04-29 16:42 39.22272 -8.65690 26008 ft 509 kts 49°
2026-04-29 16:42 39.24580 -8.62306 26414 ft 500 kts 49°
2026-04-29 16:42 39.26899 -8.58899 26859 ft 518 kts 49°
2026-04-29 16:42 39.29225 -8.55477 27274 ft 509 kts 49°
2026-04-29 16:43 39.31564 -8.52034 27664 ft 512 kts 49°
2026-04-29 16:43 39.33922 -8.48560 28038 ft 519 kts 50°
2026-04-29 16:43 39.36287 -8.45071 28418 ft 518 kts 50°
2026-04-29 16:43 39.38639 -8.41599 28759 ft 522 kts 50°
2026-04-29 16:44 39.41030 -8.38066 29116 ft 521 kts 50°
2026-04-29 16:44 39.43436 -8.34506 29448 ft 524 kts 50°
2026-04-29 16:44 39.45858 -8.30918 29777 ft 525 kts 50°
2026-04-29 16:44 39.48282 -8.27322 30148 ft 535 kts 50°
2026-04-29 16:45 39.50713 -8.23715 30640 ft 515 kts 50°
2026-04-29 16:45 39.53136 -8.20113 31154 ft 539 kts 50°
2026-04-29 16:45 39.55566 -8.16498 31673 ft 534 kts 50°
2026-04-29 16:45 39.57986 -8.12895 32205 ft 528 kts 50°
2026-04-29 16:46 39.60403 -8.09292 32761 ft 526 kts 50°
2026-04-29 16:46 39.62814 -8.05693 33328 ft 522 kts 50°
2026-04-29 16:46 39.65235 -8.02119 33916 ft 520 kts 47°
2026-04-29 16:46 39.67899 -7.98838 34457 ft 515 kts 43°
2026-04-29 16:47 39.70544 -7.95548 35052 ft 531 kts 45°
2026-04-29 16:47 39.73150 -7.92205 35574 ft 514 kts 45°
2026-04-29 16:47 39.75746 -7.88850 35812 ft 527 kts 45°
2026-04-29 16:47 39.78303 -7.85564 35861 ft 524 kts 45°
2026-04-29 16:48 39.83539 -7.78906 35854 ft 524 kts 44°
2026-04-29 16:48 39.88702 -7.72368 35859 ft 518 kts 44°
2026-04-29 16:49 39.93891 -7.65782 35855 ft 520 kts 44°
2026-04-29 16:49 39.99070 -7.59189 35855 ft 521 kts 44°
2026-04-29 16:50 40.04254 -7.52573 35860 ft 520 kts 44°
2026-04-29 16:50 40.09435 -7.45946 35855 ft 521 kts 44°
2026-04-29 16:51 40.14608 -7.39315 35861 ft 521 kts 44°
2026-04-29 16:51 40.19784 -7.32665 35859 ft 523 kts 44°
2026-04-29 16:52 40.24951 -7.26011 35864 ft 518 kts 44°
2026-04-29 16:52 40.30120 -7.19340 35859 ft 522 kts 44°
2026-04-29 16:53 40.32710 -7.15992 35854 ft 557 kts 44°
2026-04-29 16:53 40.35284 -7.12660 35855 ft 520 kts 44°
2026-04-29 16:53 40.40449 -7.05963 35855 ft 519 kts 44°
2026-04-29 16:54 40.44743 -7.00384 35855 ft 521 kts 44°
2026-04-29 16:54 40.49899 -6.93671 35853 ft 522 kts 44°
2026-04-29 16:55 42.44321 -2.90278 36110 ft 533 kts 63°
2026-04-29 16:55 42.46259 -2.86056 35846 ft 526 kts 52°
2026-04-29 16:55 42.48852 -2.82601 35853 ft 519 kts 38°
2026-04-29 16:56 42.54529 -2.76589 35853 ft 519 kts 37°
2026-04-29 16:56 47.91202 5.25963 36156 ft 531 kts 50°
2026-04-29 16:57 47.93440 5.30284 36083 ft 517 kts 51°
2026-04-29 16:57 47.95577 5.34556 36085 ft 516 kts 51°
2026-04-29 16:57 47.99846 5.42956 36083 ft 521 kts 49°
2026-04-29 16:58 48.01995 5.47133 36096 ft 506 kts 49°
2026-04-29 16:58 48.04147 5.51312 36095 ft 509 kts 49°
2026-04-29 16:58 48.08447 5.59698 36095 ft 507 kts 50°
2026-04-29 16:59 48.12730 5.68114 36111 ft 507 kts 50°
2026-04-29 16:59 48.16965 5.76474 36116 ft 505 kts 50°
2026-04-29 17:00 48.21224 5.84909 36124 ft 508 kts 50°
2026-04-29 17:00 48.25476 5.93355 36119 ft 506 kts 50°
2026-04-29 17:01 48.27579 5.97546 36109 ft 486 kts 50°
2026-04-29 17:01 48.29577 6.01549 36073 ft 478 kts 50°
2026-04-29 17:01 48.31632 6.05389 35574 ft 473 kts 43°
2026-04-29 17:01 48.34127 6.08566 34896 ft 470 kts 31°
2026-04-29 17:02 48.36832 6.11278 34423 ft 458 kts 28°
2026-04-29 17:02 48.39493 6.13769 34013 ft 446 kts 27°
2026-04-29 17:02 48.42150 6.16214 33643 ft 449 kts 27°
2026-04-29 17:02 48.44782 6.18649 33232 ft 447 kts 27°
2026-04-29 17:03 48.47381 6.21096 32848 ft 442 kts 28°
2026-04-29 17:03 48.49961 6.23566 32471 ft 442 kts 28°
2026-04-29 17:03 48.52522 6.26046 32115 ft 434 kts 29°
2026-04-29 17:03 48.55065 6.28527 31738 ft 432 kts 29°
2026-04-29 17:04 48.57576 6.30986 31360 ft 434 kts 29°
2026-04-29 17:04 48.60095 6.33458 30966 ft 431 kts 29°
2026-04-29 17:04 48.62599 6.35910 30616 ft 428 kts 30°
2026-04-29 17:04 48.65094 6.38372 30227 ft 418 kts 30°
2026-04-29 17:05 48.67540 6.40908 29855 ft 430 kts 32°
2026-04-29 17:05 48.69963 6.43466 29473 ft 424 kts 31°
2026-04-29 17:05 48.72411 6.45905 29098 ft 433 kts 30°
2026-04-29 17:05 48.74876 6.48306 28721 ft 423 kts 30°
2026-04-29 17:06 48.77331 6.50682 28335 ft 431 kts 30°
2026-04-29 17:06 48.79748 6.53022 27977 ft 430 kts 30°
2026-04-29 17:06 48.82165 6.55370 27608 ft 442 kts 30°
2026-04-29 17:06 48.84578 6.57726 27253 ft 421 kts 30°
2026-04-29 17:07 48.86979 6.60078 26890 ft 411 kts 31°
2026-04-29 17:07 48.89370 6.62428 26528 ft 414 kts 31°
2026-04-29 17:07 48.91737 6.64759 26167 ft 401 kts 31°
2026-04-29 17:07 48.94099 6.67087 25808 ft 406 kts 31°
2026-04-29 17:08 48.96449 6.69405 25467 ft 404 kts 31°
2026-04-29 17:08 48.98690 6.71910 25126 ft 393 kts 42°
2026-04-29 17:08 49.00669 6.74903 24757 ft 398 kts 46°
2026-04-29 17:08 49.02539 6.77997 24432 ft 391 kts 49°
2026-04-29 17:09 49.04346 6.81152 24095 ft 396 kts 50°
2026-04-29 17:09 49.06122 6.84320 23748 ft 386 kts 51°
2026-04-29 17:09 49.07879 6.87467 23401 ft 388 kts 51°
2026-04-29 17:09 49.09626 6.90583 23082 ft 392 kts 51°
2026-04-29 17:10 49.11370 6.93671 22722 ft 392 kts 51°
2026-04-29 17:10 49.13109 6.96729 22381 ft 395 kts 51°
2026-04-29 17:10 49.14839 6.99756 22069 ft 381 kts 51°
2026-04-29 17:10 49.16564 7.02744 21730 ft 384 kts 49°
2026-04-29 17:11 49.18556 7.05325 21376 ft 358 kts 36°
2026-04-29 17:11 49.20741 7.07517 20994 ft 376 kts 33°
2026-04-29 17:11 49.22952 7.09529 20610 ft 378 kts 31°
2026-04-29 17:11 49.25175 7.11479 20130 ft 368 kts 31°
2026-04-29 17:12 49.27360 7.13392 19633 ft 367 kts 31°
2026-04-29 17:12 49.29582 7.15370 19130 ft 390 kts 32°
2026-04-29 17:12 49.31773 7.17354 18630 ft 378 kts 33°
2026-04-29 17:12 49.33230 7.18688 18276 ft 363 kts 33°
2026-04-29 17:13 49.36050 7.21298 17618 ft 376 kts 33°
2026-04-29 17:13 49.38118 7.23223 17089 ft 355 kts 34°
2026-04-29 17:13 49.40173 7.25141 16614 ft 349 kts 34°
2026-04-29 17:13 49.42192 7.27026 16115 ft 334 kts 34°
2026-04-29 17:14 49.44183 7.28877 15612 ft 333 kts 34°
2026-04-29 17:14 49.46142 7.30697 15157 ft 325 kts 35°
2026-04-29 17:14 49.48049 7.32485 14705 ft 320 kts 35°
2026-04-29 17:14 49.49876 7.34216 14252 ft 316 kts 35°
2026-04-29 17:15 49.51663 7.35907 13786 ft 300 kts 35°
2026-04-29 17:15 49.53441 7.37552 13307 ft 298 kts 36°
2026-04-29 17:15 49.55178 7.39186 12853 ft 293 kts 36°
2026-04-29 17:15 49.56877 7.40790 12416 ft 291 kts 36°
2026-04-29 17:16 49.58566 7.42364 11981 ft 288 kts 36°
2026-04-29 17:16 49.60211 7.43936 11542 ft 278 kts 36°
2026-04-29 17:16 49.61850 7.45456 11081 ft 281 kts 36°
2026-04-29 17:16 49.63444 7.46982 10641 ft 268 kts 36°
2026-04-29 17:17 49.65033 7.48460 10206 ft 280 kts 37°
2026-04-29 17:17 49.66619 7.49981 9711 ft 277 kts 36°
2026-04-29 17:17 49.68203 7.51469 9268 ft 271 kts 36°
2026-04-29 17:17 49.69724 7.52907 8823 ft 252 kts 36°
2026-04-29 17:18 49.71284 7.54138 8369 ft 255 kts 18°
2026-04-29 17:18 49.73025 7.54415 8000 ft 257 kts
2026-04-29 17:18 49.74723 7.53861 7572 ft 254 kts 336°
2026-04-29 17:18 49.76085 7.52098 7080 ft 260 kts 306°
2026-04-29 17:19 49.76721 7.49579 6621 ft 247 kts 275°
2026-04-29 17:19 49.76746 7.46861 6227 ft 247 kts 264°
2026-04-29 17:19 49.76603 7.43989 5765 ft 287 kts 262°
2026-04-29 17:19 49.76393 7.41065 5394 ft 280 kts 261°
2026-04-29 17:20 49.76171 7.38206 5393 ft 254 kts 261°
2026-04-29 17:20 49.75971 7.35517 5353 ft 250 kts 261°
2026-04-29 17:20 49.75767 7.32921 5314 ft 240 kts 262°
2026-04-29 17:20 49.75577 7.30327 5321 ft 246 kts 262°
2026-04-29 17:21 49.75380 7.27772 5321 ft 254 kts 262°
2026-04-29 17:21 49.75196 7.25195 5378 ft 248 kts 261°
2026-04-29 17:21 49.74703 7.22785 5397 ft 233 kts 236°
2026-04-29 17:21 49.73644 7.20981 5370 ft 225 kts 215°
2026-04-29 17:22 49.72367 7.19513 5390 ft 241 kts 211°
2026-04-29 17:22 49.71032 7.18121 5247 ft 231 kts 207°
2026-04-29 17:22 49.69689 7.16865 5128 ft 223 kts 207°
2026-04-29 17:22 49.68435 7.15700 5113 ft 210 kts 208°
2026-04-29 17:23 49.67222 7.14481 5068 ft 212 kts 207°
2026-04-29 17:23 49.66020 7.13333 5089 ft 204 kts 212°
2026-04-29 17:23 49.65055 7.11690 5103 ft 208 kts 238°
2026-04-29 17:23 49.64748 7.09518 5123 ft 214 kts 275°
2026-04-29 17:24 49.65202 7.07351 5122 ft 216 kts 299°
2026-04-29 17:24 49.65950 7.05434 5117 ft 212 kts 306°
2026-04-29 17:24 49.66783 7.03562 5102 ft 220 kts 311°
2026-04-29 17:24 49.67907 7.02163 5091 ft 208 kts 340°
2026-04-29 17:25 49.69320 7.01769 5089 ft 204 kts 11°
2026-04-29 17:25 49.70613 7.02456 5089 ft 190 kts 35°
2026-04-29 17:25 49.71766 7.03562 5099 ft 202 kts 37°
2026-04-29 17:25 49.72905 7.04711 5105 ft 199 kts 37°
2026-04-29 17:26 49.74056 7.05817 5128 ft 196 kts 38°
2026-04-29 17:26 49.75185 7.06956 5133 ft 196 kts 38°
2026-04-29 17:26 49.76320 7.08110 5129 ft 194 kts 36°
2026-04-29 17:26 49.77475 7.09212 5129 ft 199 kts 37°
2026-04-29 17:27 49.78612 7.10363 5044 ft 196 kts 37°
2026-04-29 17:27 49.79679 7.11383 4849 ft 182 kts 38°
2026-04-29 17:27 49.80678 7.12362 4606 ft 165 kts 39°
2026-04-29 17:27 49.81644 7.13366 4392 ft 166 kts 36°
2026-04-29 17:28 49.82599 7.14273 4207 ft 157 kts 37°
2026-04-29 17:28 49.83517 7.15203 3962 ft 153 kts 36°
2026-04-29 17:28 49.84433 7.16075 3782 ft 152 kts 38°
2026-04-29 17:28 49.85316 7.16962 3576 ft 151 kts 39°
2026-04-29 17:29 49.86208 7.17871 3359 ft 154 kts 35°
2026-04-29 17:29 49.87111 7.18726 3160 ft 149 kts 37°
2026-04-29 17:29 49.87974 7.19573 2953 ft 147 kts 40°
2026-04-29 17:29 49.88541 7.20167 2819 ft 150 kts 37°
2026-04-29 17:30 49.89746 7.21326 2548 ft 149 kts 36°
2026-04-29 17:30 49.90625 7.22213 2343 ft 149 kts 35°
2026-04-29 17:30 49.91496 7.22993 2137 ft 141 kts 42°
2026-04-29 17:30 49.92307 7.23843 1966 ft 142 kts 37°
2026-04-29 17:31 49.93156 7.24686 1731 ft 151 kts 37°
2026-04-29 17:31 49.93992 7.25521 1672 ft 125 kts 33°
2026-04-29 17:31 49.94552 7.26077 1671 ft 73 kts 29°
2026-04-29 17:31 49.94891 7.26407 1669 ft 31 kts 34°
2026-04-29 17:32 49.95013 7.26534 1673 ft 16 kts 32°
2026-04-29 17:32 49.95091 7.26605 1670 ft 8 kts 36°
2026-04-29 17:32 49.95120 7.26683 1673 ft 10 kts 111°
2026-04-29 17:32 49.95049 7.26723 1669 ft 13 kts 185°
2026-04-29 17:33 49.94963 7.26741 1669 ft 12 kts 152°
2026-04-29 17:33 49.94914 7.26827 1664 ft 10 kts 110°
2026-04-29 17:33 49.94924 7.26928 1663 ft 10 kts 34°
2026-04-29 17:33 49.94986 7.26989 1669 ft 6 kts 33°
2026-04-29 17:34 49.95020 7.27024 1669 ft 5 kts 33°
2026-04-29 17:34 49.95031 7.27084 1672 ft 7 kts 126°
2026-04-29 17:34 49.94997 7.27162 1664 ft 5 kts 122°
2026-04-29 17:34 49.94991 7.27178 1663 ft 0 kts 123°